GFSFLT1_850_dewp_060.txt.gz
Dewpoint
5 8 8 6 7 1 -0 3 6 9 9 9 9 9 8 6 6 4 2 0 -1 -1 -0 -1 -0 -0 -0 -4 -9 -10 -9 -9
5 6 5 6 8 6 2 5 8 9 9 8 9 7 7 8 6 3 1 1 0 0 1 1 1 -0 -4 -8 -8 -10 -11 -9
7 6 7 8 9 9 8 8 9 9 10 7 7 8 8 8 6 4 3 2 1 2 2 1 -1 -4 -6 -6 -8 -10 -11 -6
5 7 7 8 9 9 9 9 10 10 10 9 8 7 6 5 4 3 1 2 3 3 2 -0 -1 -3 -6 -6 -6 -5 -4 -3
7 7 8 8 9 10 10 10 11 10 9 8 5 2 2 3 2 3 3 4 4 2 1 0 -1 -2 -5 -4 -3 -3 -3 -3
5 5 6 8 9 10 11 11 10 9 8 7 7 3 3 2 4 4 4 4 3 1 -1 -2 -2 -3 -3 -2 -2 -2 -3 -5
7 7 8 9 10 11 11 8 8 9 9 7 6 4 3 4 4 4 4 2 2 -1 -1 -3 -3 -3 -3 -2 -2 -4 -7 -5
8 9 9 10 9 10 7 8 9 9 6 7 6 5 4 4 4 5 4 2 -1 -2 -0 0 -3 -3 -3 -4 -7 -10 -11 -8
9 10 10 9 8 9 8 9 10 6 5 6 5 5 4 4 3 1 -0 -0 0 3 1 -2 -3 -3 -8 -14 -17 -17 -13 -9
10 10 9 8 9 9 9 10 7 5 5 5 5 5 4 4 2 2 2 3 1 -2 -3 -5 -6 -12 -15 -16 -17 -13 -8 -6
9 9 9 8 8 7 7 6 6 6 5 5 5 5 5 2 1 1 2 1 -3 -6 -6 -9 -10 -11 -12 -15 -11 -7 -6 -5
8 8 8 7 7 7 7 6 6 5 5 5 5 5 2 2 2 1 1 -6 -7 -8 -9 -8 -8 -9 -9 -12 -7 -6 -6 -6
6 6 6 6 5 5 5 5 4 4 5 5 4 2 2 2 -4 -1 -4 -6 -8 -8 -7 -7 -9 -7 -9 -6 -5 -5 -5 -5
5 5 5 4 4 5 5 5 5 5 4 3 2 3 -2 -5 -4 -4 -8 -8 -7 -7 -10 -10 -6 -7 -7 -5 -5 -5 -5 -7
4 4 4 5 5 6 6 5 5 3 3 3 -2 -5 -6 -4 -6 -8 -9 -10 -12 -11 -12 -8 -7 -6 -6 -5 -5 -5 -7 -5
5 4 5 6 6 6 5 4 4 3 1 -4 -6 -7 -7 -6 -7 -12 -13 -8 -7 -13 -10 -8 -6 -6 -5 -5 -5 -6 -7 -6
4 5 6 6 6 6 6 5 2 -1 -2 -5 -8 -8 -7 -10 -10 -9 -4 -5 -13 -14 -8 -7 -6 -5 -5 -5 -6 -8 -9 -7
5 5 6 6 6 6 4 2 0 -2 -5 -8 -9 -11 -10 -7 -3 -4 -9 -12 -11 -9 -7 -6 -6 -6 -5 -6 -6 -6 -8 -7
5 5 5 5 4 2 1 -1 -3 -5 -7 -9 -10 -7 -3 -5 -10 -11 -13 -11 -10 -9 -9 -11 -11 -9 -6 -6 -6 -7 -8 -6

GFSFLT1_850_dewp_063.txt.gz
Dewpoint
7 5 7 9 10 10 10 8 6 6 7 8 9 10 10 8 5 5 4 2 -1 -1 -1 -1 -0 -1 -2 -5 -8 -9 -10 -10
6 8 8 9 10 9 7 1 4 7 8 9 10 10 9 7 6 5 2 0 -0 0 0 1 1 -1 -3 -5 -6 -8 -8 -7
4 7 9 9 9 7 4 1 3 8 9 9 9 9 8 7 7 5 4 2 1 1 2 2 0 -1 -2 -3 -6 -7 -6 -5
3 6 9 9 8 7 2 1 5 7 9 10 9 9 7 8 7 6 4 3 1 2 3 0 -1 -2 -2 -3 -4 -4 -4 -3
3 6 7 6 6 8 8 6 7 9 10 10 9 8 8 7 5 4 2 2 3 4 1 -1 -1 -2 -2 -2 -3 -3 -3 -3
5 4 4 5 6 7 9 9 9 10 10 10 9 7 4 3 3 3 3 4 4 2 0 -1 -1 -2 -2 -2 -3 -2 -3 -5
4 4 4 4 5 7 9 9 10 10 10 10 9 6 3 3 3 4 4 4 4 2 1 -1 -0 3 -0 -2 -3 -5 -9 -12
4 4 5 5 7 9 9 10 10 10 10 9 8 7 4 3 3 4 4 4 3 3 -1 2 3 -1 -3 -4 -8 -15 -17 -16
7 7 8 8 9 8 9 9 9 8 9 9 7 6 5 4 4 4 5 3 3 1 3 2 -2 -3 -6 -11 -14 -16 -16 -12
6 8 7 9 8 8 8 8 8 9 9 7 6 7 6 5 5 3 3 2 3 2 -2 -4 -5 -8 -10 -10 -13 -14 -11 -8
7 8 8 9 9 8 8 7 8 8 7 6 6 6 5 4 4 2 3 3 1 -5 -5 -6 -8 -8 -9 -12 -11 -12 -8 -7
7 8 9 9 8 7 8 8 8 8 6 5 5 5 4 3 2 2 3 3 -3 -5 -7 -8 -8 -11 -12 -9 -11 -10 -7 -5
7 8 10 9 8 8 8 8 8 7 6 5 5 4 3 1 2 4 -2 -4 -6 -8 -8 -8 -12 -11 -9 -10 -9 -7 -5 -5
9 9 9 9 8 8 7 6 6 6 5 3 2 2 2 3 1 -3 -2 -6 -8 -8 -15 -10 -9 -10 -8 -7 -6 -5 -4 -5
7 8 9 9 8 7 6 6 5 5 4 3 3 3 4 2 -4 -5 -7 -8 -14 -14 -9 -9 -11 -10 -8 -6 -5 -4 -5 -5
6 7 8 8 8 7 6 6 5 6 4 4 4 3 -1 -5 -6 -7 -12 -12 -8 -6 -6 -13 -14 -10 -8 -6 -5 -5 -5 -6
6 5 6 6 7 7 6 6 6 5 4 3 1 -5 -6 -8 -11 -9 -8 -4 -4 -10 -16 -15 -12 -10 -9 -8 -6 -5 -6 -6
5 5 5 5 6 6 6 6 4 4 2 -3 -7 -9 -10 -10 -6 -3 -3 -10 -16 -17 -14 -12 -11 -11 -11 -11 -7 -6 -6 -7
5 5 6 6 6 6 5 5 3 -2 -6 -8 -10 -8 -4 -3 -3 -6 -12 -18 -17 -14 -13 -13 -13 -13 -11 -9 -7 -6 -6 -7

GFSFLT1_850_dewp_069.txt.gz
Dewpoint
7 5 5 6 6 7 9 10 9 6 3 4 8 8 8 8 8 9 8 7 4 5 7 2 -1 -0 0 -0 -0 -1 -3 -7
6 7 6 5 5 7 9 10 10 8 3 7 9 9 8 8 8 9 6 5 5 5 1 -0 0 1 0 -0 -0 -0 -2 -4
7 6 6 6 6 7 8 9 9 9 6 6 7 7 8 8 9 6 5 5 3 0 1 1 2 1 -0 -0 0 -0 -1 -2
7 7 6 6 7 7 8 9 9 9 8 7 7 8 9 9 7 6 6 4 1 1 1 2 2 0 -0 1 2 1 -0 -2
6 6 7 7 6 5 8 9 9 8 8 7 7 8 8 9 8 7 6 4 2 2 2 3 2 -0 -1 2 2 1 -2 -3
7 5 5 6 6 6 7 8 9 9 8 7 7 9 10 9 8 7 6 4 3 3 2 3 1 0 1 3 2 -2 -3 -8
6 5 3 3 3 6 7 7 8 9 8 7 6 9 10 9 8 7 6 4 4 3 3 3 1 2 3 3 -1 -3 -9 -14
6 7 5 3 2 4 6 7 7 8 8 7 6 7 9 9 9 7 7 5 4 3 4 3 3 0 3 3 -4 -9 -11 -14
5 5 6 4 3 3 4 6 7 6 7 8 6 9 10 9 7 4 3 3 3 4 4 3 2 3 2 -4 -8 -9 -11 -12
4 5 6 5 4 3 4 5 6 6 7 8 9 10 10 9 7 5 4 4 4 4 4 2 4 3 -3 -6 -9 -9 -10 -10
3 4 6 5 5 4 4 5 5 6 7 8 10 10 10 7 7 7 5 4 4 3 3 4 3 -5 -8 -8 -8 -9 -8 -11
2 3 4 5 5 5 5 5 7 8 8 9 9 9 7 8 8 8 5 5 3 3 4 2 -6 -8 -7 -8 -9 -8 -9 -8
2 3 4 4 4 5 5 6 7 6 7 9 8 8 8 8 8 7 5 3 4 4 3 -5 -5 -6 -9 -9 -8 -9 -7 -6
3 5 5 5 5 6 6 7 7 5 6 6 7 9 9 7 6 5 3 4 4 -1 -6 -5 -7 -9 -9 -8 -10 -9 -8 -7
2 4 6 6 7 7 6 7 7 7 6 7 9 8 5 4 4 3 3 1 -3 -7 -7 -10 -5 -4 -6 -11 -12 -11 -11 -10
2 5 6 7 8 8 7 6 6 7 9 8 6 3 2 4 3 0 -2 -2 -7 -10 -6 -3 -5 -12 -14 -14 -14 -14 -15 -14
1 5 7 9 9 9 8 9 9 8 7 5 3 2 5 3 -3 -1 -4 -7 -3 -3 -2 -5 -14 -17 -15 -14 -15 -15 -16 -14
3 5 6 8 9 9 9 8 8 7 6 3 3 4 -1 -4 -3 -4 -4 -3 -1 -4 -9 -14 -17 -16 -15 -16 -17 -16 -15 -15
4 5 6 7 8 8 8 7 6 4 3 4 2 -4 -6 -4 -3 -2 -2 -3 -5 -8 -11 -16 -14 -15 -16 -16 -16 -15 -14 -15

GFSFLT1_850_dewp_072.txt.gz
Dewpoint
9 9 9 9 7 7 8 9 8 8 10 4 2 7 8 8 8 8 8 8 7 6 7 7 3 -1 -0 0 -0 0 0 -0
8 9 8 8 8 8 10 10 9 8 5 5 5 5 8 7 7 7 8 8 6 6 7 5 -1 -0 1 0 0 1 1 1
7 8 9 9 9 10 10 11 10 10 9 7 9 8 8 8 8 8 8 7 6 6 5 0 -0 1 1 -0 1 2 2 1
7 8 8 9 8 9 10 10 11 10 11 8 10 10 8 8 8 9 7 6 6 5 1 0 0 2 1 -0 2 2 2 2
7 7 8 9 9 9 9 9 11 11 10 10 7 9 9 9 9 8 6 6 4 2 1 1 2 2 1 0 2 2 1 1
6 7 7 8 9 10 10 10 11 11 10 10 9 10 10 9 9 8 6 5 4 2 2 2 2 2 1 0 3 3 1 -1
8 7 7 8 9 11 10 10 10 9 9 9 8 9 7 9 9 9 7 5 5 3 3 3 3 3 1 2 3 3 -1 -6
7 7 8 7 9 9 9 9 10 10 9 9 9 7 6 8 9 9 7 6 6 5 3 3 3 3 2 3 4 -1 -7 -4
7 7 8 8 8 4 3 4 7 7 7 8 8 8 7 5 8 9 7 7 6 5 4 4 3 2 4 3 1 -4 -3 -5
4 6 8 9 9 4 2 2 5 6 6 8 8 8 8 8 9 9 8 7 6 5 4 4 3 3 3 2 -4 -2 -4 -4
4 5 7 8 9 10 5 5 3 5 6 8 7 8 8 8 10 9 7 6 5 4 4 3 3 3 2 -7 -4 -2 -3 -3
4 4 6 8 9 10 9 7 8 9 7 7 8 9 9 10 9 9 8 6 5 5 3 3 4 2 -7 -6 -3 -3 -3 -3
5 6 7 8 9 10 9 9 9 9 9 9 9 10 9 10 9 8 8 6 5 4 5 4 0 -5 -5 -4 -4 -4 -3 -3
6 7 8 8 9 9 9 10 9 6 8 9 8 8 8 9 8 8 6 5 4 4 4 -2 -5 -5 -5 -3 -3 -3 -3 -4
4 7 9 9 10 10 10 10 8 7 9 7 8 8 6 7 8 4 5 3 4 1 1 -4 -7 -7 -3 -3 -4 -5 -5 -5
2 5 8 10 10 11 10 8 7 9 9 9 8 8 8 6 4 4 3 3 -0 2 -4 -10 -5 -2 -4 -6 -7 -6 -6 -6
0 5 8 9 10 9 9 9 9 8 8 8 8 7 5 4 5 4 1 0 1 -6 -5 -1 -3 -5 -9 -16 -15 -14 -8 -7
4 6 8 9 9 8 8 8 8 8 8 7 5 3 4 4 1 -1 -2 -2 -3 -2 -2 -7 -7 -6 -11 -16 -16 -16 -12 -9
6 7 8 8 8 7 7 6 5 7 5 4 2 3 3 -3 -4 -3 -3 -1 -2 -3 -4 -5 -6 -8 -16 -16 -15 -14 -9 -8

GFSFLT1_850_dewp_075.txt.gz
Dewpoint
10 9 9 9 9 8 7 7 7 6 8 7 6 8 7 8 8 9 9 9 8 9 9 7 7 5 3 2 2 1 2 2
9 8 8 7 8 8 8 9 7 8 8 9 8 8 8 7 9 9 8 9 8 9 8 7 6 4 3 0 1 1 3 3
8 9 9 7 7 7 8 9 10 10 9 8 7 8 9 9 9 7 7 8 8 9 8 7 5 4 2 1 2 3 3 3
6 8 8 8 7 8 8 10 11 11 8 7 7 8 10 10 9 10 7 8 9 9 8 6 5 4 3 2 3 4 3 3
6 7 8 8 8 9 9 10 10 10 10 8 8 9 10 10 10 10 7 8 8 7 7 6 5 4 4 4 4 4 4 3
5 6 6 8 8 8 9 9 9 9 11 9 9 9 8 9 10 9 8 8 7 7 6 6 5 4 4 4 3 2 3 3
4 5 5 6 7 9 9 9 9 9 10 11 10 10 9 10 9 7 8 7 7 6 6 5 5 4 4 3 1 2 3 3
4 3 5 6 7 8 9 10 9 10 11 12 11 11 10 9 7 6 8 9 7 7 6 6 5 4 4 1 2 2 2 0
5 5 5 5 6 8 10 10 10 10 11 11 12 11 10 10 8 8 7 9 7 7 6 6 6 4 2 3 2 1 2 -2
2 4 6 6 6 7 9 10 10 10 10 11 11 11 10 10 9 9 8 9 7 7 6 6 5 4 2 3 3 -0 -3 -1
1 2 5 6 8 8 10 10 9 10 10 11 11 10 10 10 10 9 9 9 7 6 6 5 5 3 2 3 2 -1 -0 -1
2 3 4 6 8 9 10 10 9 9 10 11 11 11 11 10 10 9 9 8 7 6 5 5 3 3 3 3 -1 -1 -1 -1
2 3 4 5 7 8 10 10 9 8 10 11 11 11 10 10 10 9 8 7 7 6 5 4 4 4 1 -1 -1 -1 -2 -2
1 3 5 6 7 8 9 10 10 9 10 11 10 10 10 10 9 9 8 7 5 3 4 4 4 2 -1 -1 -2 -2 -2 -2
0 3 5 7 7 9 9 10 10 10 10 10 9 10 10 9 9 8 7 6 3 3 3 3 2 -0 -2 -3 -2 -2 -4 -5
-2 1 5 7 9 9 9 11 11 10 9 9 9 9 9 8 7 6 5 3 3 3 3 0 -3 -3 -2 -2 -3 -5 -6 -7
-3 -0 3 8 10 10 10 10 9 8 8 8 8 8 7 7 4 3 3 4 3 1 2 -3 -1 -1 -2 -5 -10 -17 -13 -8
2 2 5 9 10 10 9 8 7 7 7 7 7 7 6 5 5 4 3 0 0 -2 -1 -0 -1 -3 -5 -7 -14 -16 -15 -9
5 6 8 9 9 8 8 7 6 6 7 7 6 5 4 4 2 -1 -1 -2 0 1 -1 -2 -3 -5 -6 -8 -11 -13 -11 -7

GFSFLT1_850_dewp_078.txt.gz
Dewpoint
9 9 8 8 8 7 7 5 4 6 5 3 5 7 5 5 4 4 7 7 8 8 9 9 8 7 4 2 1 2 2 1
9 8 8 8 8 5 3 3 4 5 6 6 7 8 4 -0 1 6 7 9 9 9 9 8 7 6 4 2 2 1 1 1
9 9 9 8 6 5 6 7 7 7 8 8 6 7 4 4 7 7 8 9 9 9 9 7 7 5 4 2 2 3 4 3
8 8 9 8 6 7 8 9 8 8 8 8 8 8 8 6 7 8 8 6 7 8 9 8 7 5 4 2 3 4 4 4
8 8 7 7 8 8 7 8 9 9 9 8 7 7 9 7 7 8 7 6 8 9 9 8 6 5 4 3 3 4 4 3
7 8 9 8 7 7 7 8 9 9 8 9 6 8 8 7 8 9 9 8 7 8 8 7 6 5 4 4 4 4 4 3
6 7 7 8 8 8 7 9 10 9 9 8 8 9 9 9 9 9 8 8 8 9 7 7 6 5 4 4 4 4 2 2
5 6 7 8 8 8 9 9 9 10 10 9 8 9 9 9 9 8 8 7 8 8 8 7 6 5 4 4 4 3 2 2
5 5 6 6 7 8 8 9 9 9 9 10 9 9 10 9 10 7 7 5 7 8 8 6 6 6 5 4 3 3 2 2
4 4 6 6 6 7 8 9 10 9 9 10 10 9 10 11 8 8 9 6 7 9 8 6 6 6 5 5 3 3 3 3
0 4 5 5 6 6 8 9 9 10 10 10 10 10 11 11 10 10 9 9 9 8 8 7 6 6 5 3 3 3 3 0
1 1 2 6 6 7 7 8 9 10 10 10 11 11 10 11 10 10 10 10 9 8 7 7 6 6 5 3 3 3 -0 -0
-0 2 2 4 7 7 7 8 10 10 10 10 11 10 10 10 10 10 10 9 9 8 7 6 6 5 4 4 3 1 1 -0
-1 1 2 3 4 8 9 9 10 10 9 10 11 10 8 10 10 9 9 9 8 8 6 5 4 4 4 3 2 0 -1 -1
-4 1 2 4 5 6 8 9 10 10 9 9 10 8 10 10 9 9 9 8 8 7 3 3 4 3 2 1 -1 -2 -2 -2
-6 -4 2 4 6 7 9 9 10 10 9 9 10 10 10 9 9 9 8 8 6 3 4 3 4 2 -2 -3 -3 -1 -2 -4
-3 -3 -2 6 8 9 9 10 10 10 10 10 10 9 9 8 8 8 7 6 3 4 3 3 -0 -2 -2 -2 -1 -2 -4 -11
0 1 0 8 9 10 9 10 10 10 10 9 8 8 8 8 7 6 4 4 4 2 1 -2 -2 -0 0 -1 -3 -7 -13 -18
3 3 7 9 10 10 10 10 10 9 8 7 8 7 7 6 4 4 4 3 1 -1 -1 -0 0 -2 -3 -5 -6 -8 -10 -12

GFSFLT1_850_dewp_084.txt.gz
Dewpoint
9 10 10 10 10 10 10 9 9 7 3 3 4 3 3 5 4 2 4 3 7 7 7 8 8 8 8 7 7 6 1 -0
9 10 10 9 9 9 9 8 7 6 5 5 2 3 5 6 4 3 5 7 6 7 7 7 8 8 8 8 7 7 1 0
9 9 9 9 9 9 9 8 8 8 7 6 5 6 6 4 3 3 4 4 4 4 7 8 8 9 8 8 7 6 1 1
9 9 7 7 7 8 8 7 7 7 5 3 3 3 4 4 2 3 4 3 3 5 6 7 8 8 8 7 6 5 2 1
5 7 7 7 7 6 7 7 6 6 4 3 4 4 3 3 2 2 2 1 3 6 6 8 8 8 8 7 6 5 2 1
-0 5 6 6 6 5 5 4 5 5 4 3 4 4 3 4 3 2 -1 -0 2 5 7 8 8 9 9 7 6 5 4 1
3 1 4 6 5 4 3 3 2 3 2 2 2 3 3 3 2 2 4 4 5 6 8 8 8 9 9 8 6 5 5 3
5 6 5 4 2 3 3 5 6 5 5 5 5 5 6 6 6 6 7 5 6 6 7 7 8 8 9 8 8 6 4 3
6 5 3 3 3 3 4 5 7 8 9 9 7 7 7 7 7 7 6 6 4 4 7 7 8 9 9 8 7 5 5 5
7 6 6 5 3 2 2 3 4 6 8 8 9 8 8 8 7 7 7 8 8 7 7 8 8 9 9 8 6 6 5 5
7 7 7 6 5 3 4 4 5 4 6 7 8 9 8 8 8 7 7 8 8 7 8 8 8 9 9 8 8 6 6 5
6 6 6 6 6 6 6 7 7 6 5 5 7 8 9 9 9 8 8 8 8 8 8 9 8 8 8 8 7 6 6 4
3 4 3 5 6 7 7 7 7 7 6 6 5 7 9 9 9 10 9 9 9 8 8 9 8 8 8 8 7 6 6 5
2 3 3 4 5 6 6 6 6 7 7 7 7 7 8 8 9 10 10 8 7 9 9 9 8 7 7 7 7 6 6 5
0 1 2 1 2 4 5 6 6 6 7 7 7 7 8 9 10 11 10 7 4 9 9 9 8 8 8 8 7 6 5 4
-3 -1 0 -1 -1 2 3 6 6 6 7 8 8 8 9 9 8 10 6 8 7 8 9 9 8 8 7 7 6 5 4 2
-4 -4 0 1 2 2 4 6 6 7 7 8 9 9 9 9 8 9 8 9 10 9 9 8 8 7 6 5 4 3 2 0
-4 -5 -2 2 3 4 4 6 7 8 8 9 9 9 9 10 10 10 10 9 9 9 9 7 6 5 5 4 3 2 -1 -1
-1 -2 -2 2 4 5 6 7 9 9 8 8 10 10 10 9 9 9 8 8 8 8 7 5 4 4 4 3 1 -1 -2 -2

GFSFLT1_850_dewp_087.txt.gz
Dewpoint
9 10 10 10 10 10 10 10 10 9 7 6 6 4 1 1 4 6 2 2 2 1 3 4 3 5 6 7 7 6 4 0
9 9 9 9 10 10 9 10 10 9 6 6 3 6 3 2 3 5 3 2 1 4 6 5 6 6 7 8 7 7 6 2
9 8 9 9 9 9 9 9 9 8 7 4 4 8 6 4 4 4 3 2 3 6 7 7 7 7 8 8 8 7 6 3
8 9 9 8 9 8 9 9 8 8 6 4 3 4 5 7 4 3 2 4 4 4 6 6 7 7 8 8 8 7 7 5
7 8 8 9 9 8 7 7 8 8 6 4 5 4 4 4 5 4 3 3 4 4 5 7 7 8 8 8 8 8 7 6
0 6 7 7 7 7 7 7 7 7 7 7 6 5 5 6 5 3 3 3 4 4 4 7 7 7 7 8 8 8 8 5
0 1 7 6 6 6 5 4 5 6 6 5 4 3 3 4 3 3 3 3 3 3 2 3 5 7 7 8 8 9 8 6
3 1 4 5 5 5 3 4 3 4 5 4 3 4 4 4 3 3 2 2 2 2 0 2 5 7 7 8 9 9 8 6
3 1 1 4 1 0 1 1 1 2 3 3 3 3 3 4 3 3 2 1 -1 -2 1 4 5 6 7 7 9 9 8 6
4 3 0 -1 2 0 0 1 1 2 2 2 1 0 1 1 -0 -0 0 2 3 5 5 4 5 7 7 8 9 9 9 8
5 5 4 2 -1 1 1 2 3 4 4 4 4 5 5 5 5 6 6 6 6 6 7 7 6 6 8 8 8 9 9 8
4 4 5 5 3 2 2 2 2 3 5 7 7 8 8 8 7 7 7 8 8 7 7 8 8 9 9 8 9 9 9 7
3 3 5 6 6 6 4 3 2 2 2 4 4 5 7 8 8 9 9 9 9 9 8 8 9 10 9 8 9 9 9 8
3 5 6 6 6 7 7 6 5 4 4 4 4 5 5 5 6 7 8 9 10 10 9 8 8 10 9 9 8 8 7 6
1 3 4 3 4 5 5 6 6 7 6 7 7 6 6 6 6 7 8 10 9 4 5 5 7 9 9 8 8 8 8 7
-2 1 1 1 3 3 3 4 5 6 7 7 7 8 8 8 8 9 9 9 10 7 6 6 6 9 9 8 7 8 7 6
-4 -2 0 -0 -0 -0 1 1 2 4 6 7 8 8 9 9 9 10 10 10 11 10 7 9 8 9 9 8 7 7 5 4
-4 -4 -4 -2 -0 1 1 2 4 6 7 8 8 8 9 9 10 10 10 10 10 9 8 9 9 9 8 8 7 5 4 4
-3 -4 -4 -3 0 2 3 4 5 6 7 8 8 9 9 10 10 10 10 9 9 9 9 8 8 7 7 4 4 3 3 2

GFSFLT1_850_dewp_093.txt.gz
Dewpoint
8 9 9 9 10 10 10 10 10 10 10 10 10 9 9 9 7 6 7 6 2 2 2 2 3 4 5 5 6 6 6 5
8 9 9 10 10 10 10 10 10 9 10 10 10 9 9 4 5 4 5 6 6 4 4 3 3 5 3 4 6 6 6 3
8 9 9 9 9 9 10 9 10 10 10 10 10 9 5 1 5 5 5 7 4 4 5 6 4 5 5 5 6 7 6 4
8 8 9 9 9 9 9 8 9 10 10 9 8 5 3 4 8 5 6 4 4 4 7 6 4 3 3 4 6 7 7 6
7 8 8 9 8 9 9 8 9 9 9 8 6 4 5 6 8 7 6 4 3 5 4 4 3 3 2 4 5 6 7 7
6 6 6 8 8 8 8 9 9 9 8 7 5 6 7 7 6 6 3 2 3 3 4 6 4 2 4 6 7 8 8 8
6 5 7 6 8 8 8 8 9 9 8 7 5 4 7 6 5 4 2 2 2 5 5 4 4 5 5 5 6 7 8 9
6 5 5 6 7 7 8 8 8 8 8 8 6 6 5 4 6 4 2 3 4 4 4 6 6 4 5 5 5 6 7 7
6 5 3 0 4 5 6 6 7 8 8 8 7 7 5 4 3 3 1 2 4 3 4 4 4 4 4 5 3 3 3 3
4 5 4 -1 1 2 3 4 5 6 7 7 8 7 6 5 5 4 4 4 4 3 3 2 3 4 4 4 3 3 3 1
4 4 4 2 -2 1 2 1 1 3 5 6 6 6 6 5 5 6 6 5 4 4 4 4 4 3 3 3 2 3 3 5
2 3 4 4 2 -2 1 1 -0 -1 1 2 4 5 5 5 4 4 4 4 4 4 4 4 3 3 3 3 3 5 8 8
1 2 4 4 3 3 -0 1 1 -1 -1 -1 -0 -0 0 0 2 1 2 3 3 3 3 3 3 2 2 4 6 6 7 8
1 2 3 3 4 3 3 2 0 1 1 -0 -0 -0 0 0 -1 -1 -1 -1 -0 0 1 2 3 5 7 8 9 9 9 7
-1 -1 -0 2 3 3 2 3 4 3 2 1 1 0 1 1 2 3 4 4 5 6 6 7 7 7 8 7 5 6 9 8
-5 -4 -3 -1 0 1 0 1 2 4 5 4 3 2 2 2 3 4 4 4 4 5 6 6 7 8 8 8 8 9 9 6
-4 -5 -4 -3 -3 -2 -1 -0 2 4 5 6 6 6 5 4 4 4 4 5 5 7 8 8 8 9 9 8 9 9 8 8
-3 -4 -4 -5 -4 -2 1 2 3 4 5 6 7 7 7 7 7 8 8 8 9 9 9 10 9 9 9 9 8 8 8 7
-3 -3 -4 -4 -4 -4 -2 1 4 5 6 6 7 8 8 8 9 9 9 9 9 9 9 9 8 8 8 8 8 6 5 4

GFSFLT1_850_dewp_096.txt.gz
Dewpoint
9 9 8 9 10 10 10 10 9 10 10 10 10 10 10 10 10 10 8 7 5 2 5 3 3 4 4 5 5 5 5 4
9 9 8 9 10 10 10 10 10 10 10 10 10 10 10 11 10 10 10 8 5 2 2 2 3 3 4 5 5 5 6 5
8 9 7 9 10 10 10 10 10 10 10 9 10 10 10 10 10 9 9 9 4 2 2 2 4 5 4 5 6 6 6 6
8 9 6 9 9 9 10 9 10 10 10 9 9 10 10 10 9 8 7 9 5 2 3 3 3 3 4 5 5 6 6 6
8 8 8 8 9 9 9 9 9 9 10 10 9 9 9 7 6 7 7 8 8 7 4 4 4 4 4 4 5 3 6 6
7 8 8 6 9 8 9 9 9 9 9 10 10 9 5 5 6 6 5 5 5 7 5 4 7 5 4 2 3 4 5 6
7 7 7 9 9 9 8 9 8 9 9 9 9 7 4 3 6 7 6 6 7 6 5 3 5 5 3 3 2 3 5 6
7 7 7 8 9 8 8 8 8 9 9 8 8 6 4 4 5 9 8 7 6 4 4 4 4 3 3 3 3 5 6 7
7 7 7 7 8 8 8 8 8 8 9 9 7 8 6 6 7 8 7 5 4 3 3 3 2 3 4 5 6 6 6 5
7 7 7 7 8 8 7 8 8 8 8 9 8 7 5 6 8 7 5 6 4 2 2 3 4 5 6 6 7 8 8 6
6 7 7 7 6 7 7 8 8 8 8 8 8 8 7 8 7 7 7 7 6 6 7 7 7 7 7 7 8 8 8 8
5 6 7 8 8 6 4 6 8 8 8 8 8 8 8 8 7 6 6 6 6 7 7 7 8 7 7 7 7 7 7 6
4 6 7 8 8 7 -0 2 3 4 6 7 8 8 8 8 7 7 6 6 6 6 7 7 7 7 7 7 5 3 3 3
4 5 6 7 8 8 7 4 2 6 7 7 7 6 6 7 5 6 7 6 7 7 8 8 7 7 6 5 4 2 3 7
4 5 5 6 7 7 8 8 8 8 8 7 6 5 4 5 4 4 5 4 4 4 4 4 5 6 7 8 7 7 7 8
1 4 4 5 6 7 7 7 8 8 8 8 7 5 4 5 3 2 3 5 4 5 7 8 8 8 8 7 8 8 9 9
-2 -0 3 5 5 6 7 5 7 8 8 8 8 8 6 6 6 7 5 6 7 6 8 8 7 8 9 9 9 9 9 8
-2 -1 -1 4 6 6 7 6 7 8 8 8 8 8 8 8 8 8 8 8 8 8 9 9 9 9 9 9 9 8 8 7
-2 -1 -1 -2 4 5 8 8 8 7 8 9 8 8 9 9 9 9 9 8 9 9 9 9 9 8 8 8 8 7 7 6

GFSFLT1_850_dewp_102.txt.gz
Dewpoint
8 8 9 10 10 10 10 10 10 10 9 10 10 11 11 11 11 10 9 9 9 9 7 9 9 9 8 9 8 7 5 3
8 8 9 10 9 9 9 10 10 10 9 9 10 9 11 11 11 10 9 9 10 9 8 9 9 8 8 9 8 6 5 4
8 9 10 10 9 10 9 10 9 9 9 10 10 9 10 10 11 11 10 9 9 9 9 8 7 9 8 8 7 5 6 5
8 9 10 10 9 11 9 10 9 9 8 9 10 9 10 10 10 11 10 10 9 9 9 6 6 4 8 8 6 6 6 6
7 9 10 10 10 11 10 10 9 9 9 9 10 10 10 10 10 10 10 10 10 8 7 4 3 4 7 6 6 7 7 6
6 8 9 10 10 11 10 11 10 9 9 10 10 10 11 10 10 10 11 10 10 9 7 5 4 7 6 7 6 6 6 7
5 7 9 9 10 11 10 10 10 9 9 9 10 9 10 10 10 10 10 10 10 8 8 4 7 7 8 5 6 5 5 7
4 7 8 9 10 10 10 9 10 8 9 9 9 10 10 9 9 9 9 9 9 7 6 4 6 7 6 5 3 5 6 5
4 7 8 8 10 9 10 10 10 9 10 9 9 9 9 9 9 9 8 8 7 6 6 5 6 7 5 3 7 6 4 4
4 6 7 8 9 9 10 10 10 10 9 9 10 10 9 9 9 9 9 9 8 6 5 5 6 6 3 6 7 6 5 5
4 6 7 7 9 10 8 9 9 9 9 9 9 9 9 9 9 8 8 8 8 9 7 6 5 5 6 5 5 4 4 5
4 5 7 7 8 9 9 9 9 9 9 9 9 9 8 8 7 8 7 6 6 7 7 7 7 7 6 4 5 5 4 4
3 5 7 7 8 9 9 9 9 9 9 10 10 8 8 8 8 5 4 5 7 8 7 6 6 5 5 5 4 4 6 7
1 4 6 7 8 8 9 9 9 9 9 9 9 9 9 8 8 8 8 8 8 8 8 7 7 7 6 6 6 6 6 7
2 3 5 7 8 8 9 9 8 8 9 9 9 9 9 8 8 7 8 8 8 8 7 7 7 7 7 7 7 7 7 7
-2 3 4 6 7 8 8 9 8 8 8 9 9 9 9 9 9 8 8 8 8 8 8 8 8 8 8 8 9 9 9 8
-5 -1 3 5 7 8 8 8 8 8 8 8 8 9 9 9 9 9 9 9 8 8 8 9 9 8 8 8 8 7 8 8
-5 -3 -1 3 5 7 8 8 9 9 8 8 8 8 9 9 9 9 8 8 8 8 8 8 8 7 7 8 8 8 8 8
-4 -2 -1 2 4 6 7 8 9 9 9 9 9 9 9 9 9 9 8 8 8 8 8 8 8 8 8 8 8 8 8 6

GFSFLT1_850_dewp_108.txt.gz
Dewpoint
-4 1 4 7 7 9 10 10 7 8 11 11 11 12 10 11 10 11 10 10 10 8 10 -0 -0 2 0 -2 -3 1 3 4
-0 4 6 8 8 9 9 8 6 9 10 11 11 11 10 11 11 10 10 10 10 9 8 1 2 3 2 1 5 7 8 7
2 6 8 8 7 9 9 5 6 8 10 10 11 11 11 10 10 10 10 9 9 9 8 3 2 4 3 4 7 8 8 8
6 8 8 7 8 8 7 4 6 8 10 10 11 11 11 11 11 11 11 10 9 9 8 7 4 5 5 5 8 9 8 7
4 8 8 7 8 8 4 5 5 9 9 9 9 9 10 11 11 10 11 10 9 8 8 8 9 6 6 6 8 9 8 7
5 6 7 7 8 8 4 6 7 8 9 9 9 9 9 10 11 11 10 10 10 9 9 8 9 8 7 7 7 9 8 6
3 8 8 8 8 8 4 6 7 8 9 10 10 10 9 10 9 10 11 10 11 10 8 8 9 8 8 8 9 8 8 6
7 9 8 8 8 7 4 6 7 10 10 10 10 9 9 10 10 10 10 10 10 10 10 10 9 9 8 9 10 9 8 7
6 8 8 8 8 7 4 5 7 9 10 9 9 9 9 10 10 10 10 10 10 10 10 9 10 9 9 9 9 9 8 6
8 9 8 8 8 5 3 3 6 8 10 9 10 8 8 9 10 10 10 10 10 10 10 9 10 9 9 9 9 8 8 7
10 8 7 8 8 5 4 3 3 5 10 9 9 9 9 9 10 10 10 10 10 10 10 9 9 9 8 8 7 6 6 6
9 9 8 8 8 7 3 4 5 4 9 10 9 9 9 9 9 9 9 10 10 9 9 9 9 9 8 8 8 7 7 7
5 8 10 7 7 7 4 2 4 2 4 8 10 9 9 8 9 9 9 9 9 10 10 9 9 9 8 8 7 7 7 6
2 8 8 10 7 7 6 1 2 1 3 7 9 9 10 9 9 9 9 9 9 8 8 9 8 7 7 7 7 6 6 6
1 5 9 9 10 7 7 3 0 2 4 6 8 9 9 9 8 9 9 9 8 8 8 8 7 7 7 6 6 5 6 7
2 6 8 9 9 9 8 6 1 3 4 5 6 8 9 8 8 8 8 8 7 7 7 7 8 8 7 6 6 6 6 7
6 5 7 8 9 9 9 9 6 3 5 6 7 7 8 8 8 8 7 8 7 7 7 7 8 8 8 8 8 8 8 8
6 7 6 4 5 4 9 10 9 7 5 7 7 7 8 8 8 8 8 7 7 7 8 8 9 9 8 8 8 8 8 8
5 5 6 6 3 6 9 9 10 9 8 7 8 8 8 9 9 9 8 8 8 8 9 9 9 9 9 8 9 8 8 7

GFSFLT1_850_dewp_111.txt.gz
Dewpoint
-6 -4 -4 -3 2 7 9 10 10 9 8 10 10 11 10 10 10 10 10 11 10 9 8 9 10 -5 -7 -6 -1 5 5 6
-4 -4 -4 5 6 9 9 10 10 8 7 10 10 10 11 10 11 10 9 10 10 8 9 8 9 -6 -7 -7 -3 4 6 7
-3 -3 -0 -1 7 9 10 9 9 6 7 10 10 11 11 10 11 10 9 9 9 9 8 8 9 -5 -5 -6 -4 5 6 6
-3 -2 4 5 8 9 9 8 8 6 9 10 10 11 11 11 10 11 10 10 9 9 8 8 9 -3 -2 -4 -4 2 5 6
-5 -0 4 4 9 9 8 8 7 5 9 10 10 11 10 11 11 10 11 10 9 9 10 9 10 -0 0 -1 -3 -2 1 7
-5 -3 -1 6 10 9 8 8 4 6 9 10 10 10 11 10 10 11 11 10 10 10 9 10 10 3 1 2 1 4 6 7
-0 -1 4 7 10 9 8 8 3 7 9 10 9 9 9 11 11 10 10 10 10 10 10 10 9 6 2 3 3 6 9 8
3 0 1 6 9 9 9 7 3 8 11 10 9 8 8 9 10 10 11 11 11 10 10 11 10 10 5 4 4 5 8 9
6 4 1 5 9 9 9 6 3 9 10 10 9 10 9 9 9 9 9 10 10 11 10 10 10 10 9 9 7 6 8 9
4 8 9 8 8 9 9 5 3 8 10 9 10 9 9 10 10 10 9 10 10 10 10 11 10 10 9 9 9 9 9 8
5 10 10 10 9 9 8 5 3 7 9 9 9 10 9 9 10 10 10 10 10 10 10 10 10 10 9 9 9 9 9 9
6 4 10 10 10 10 8 5 4 7 7 8 9 9 10 9 10 9 10 10 10 9 10 10 10 10 10 10 10 8 9 8
4 3 9 10 10 10 9 6 4 6 6 7 8 9 9 9 9 9 9 9 10 10 10 9 10 10 9 10 9 9 8 7
4 4 9 9 9 10 10 9 8 6 5 6 8 9 8 9 9 9 9 9 9 9 9 9 9 9 9 9 9 8 8 8
7 6 7 9 9 9 10 9 9 9 5 5 9 9 8 9 9 9 9 9 9 9 9 9 8 8 9 9 9 8 8 7
8 7 9 9 10 9 10 9 9 9 7 6 8 9 9 9 9 9 9 9 9 9 9 9 9 9 9 9 8 7 7 7
7 6 7 7 10 10 10 9 9 8 8 7 8 9 9 9 9 8 9 9 9 9 8 8 8 8 8 8 7 7 6 6
6 4 6 6 5 9 10 10 9 8 7 8 8 8 9 8 8 8 9 8 8 8 8 8 8 8 8 8 8 7 7 8
5 5 4 6 7 5 9 9 10 9 8 8 8 9 9 8 9 8 8 8 8 8 8 8 7 8 8 8 8 8 8 8

GFSFLT1_850_dewp_114.txt.gz
Dewpoint
-11 -8 -8 -8 -4 -4 -4 6 7 9 10 10 9 11 10 10 9 10 11 10 10 10 10 10 6 9 1 1 8 6 6 6
-9 -8 -7 -4 -4 -1 -1 5 8 10 10 9 8 11 11 11 11 9 10 10 10 11 10 10 7 9 -0 -3 7 6 6 6
-7 -6 -4 -4 -3 1 2 7 8 10 9 8 7 10 11 11 11 11 10 10 10 10 10 10 6 9 3 -6 5 6 6 6
-5 -6 -4 -5 -3 1 6 8 8 9 9 7 9 10 11 11 11 10 9 10 10 10 10 10 9 9 3 -7 -2 3 6 7
0 -2 -5 -5 -2 4 9 10 9 10 9 8 8 10 10 11 10 9 9 10 10 9 9 9 8 9 3 -7 -5 0 4 6
3 4 2 0 0 4 8 10 10 10 9 8 8 10 10 10 10 11 9 10 10 10 9 9 9 9 7 -6 -7 -4 3 6
4 3 6 1 3 4 9 10 10 10 9 9 8 10 10 10 11 10 11 11 10 10 9 8 7 9 9 -2 -6 -6 -1 5
4 4 7 7 7 6 9 10 10 9 8 9 8 10 10 10 10 10 11 11 11 10 9 9 9 10 9 7 -3 -4 -5 4
4 4 3 9 8 7 9 10 10 9 8 7 8 10 10 10 10 10 10 10 10 10 10 10 10 9 9 10 1 -1 -3 -1
3 3 5 5 10 9 9 11 10 9 7 6 9 9 9 9 9 9 10 10 10 10 11 10 10 10 9 9 8 1 3 4
3 3 4 5 8 10 10 11 10 8 7 7 10 9 9 9 9 9 9 9 9 9 10 10 10 10 10 10 9 5 4 6
4 3 5 7 8 10 10 10 10 9 8 8 9 9 8 9 9 9 9 10 10 10 10 10 10 10 10 10 10 9 6 6
5 5 7 8 10 10 10 10 10 8 8 9 9 9 9 9 9 9 9 9 10 10 10 10 10 10 10 10 10 10 9 8
4 7 8 10 10 10 10 10 10 8 7 9 8 9 9 8 9 9 9 9 9 10 9 9 9 10 10 10 10 9 9 8
3 7 6 8 10 10 10 10 9 8 7 9 8 8 9 8 9 9 8 9 9 9 9 9 9 10 9 9 10 9 9 9
3 6 4 6 8 9 10 10 10 8 8 9 8 8 8 8 8 8 8 8 9 9 8 8 8 9 9 9 9 9 9 9
4 5 4 6 6 8 9 10 10 9 8 9 9 8 8 8 8 8 8 8 9 9 8 8 8 8 8 9 9 9 8 8
6 6 5 6 6 8 9 10 10 10 9 8 8 8 8 8 8 8 9 8 8 8 8 8 8 8 8 8 8 8 8 8
4 5 4 5 6 8 8 9 9 10 10 8 8 9 9 8 8 8 8 8 7 7 7 7 7 8 8 8 8 8 7 7

GFSFLT1_850_dewp_117.txt.gz
Dewpoint
-10 -8 -7 -8 -9 -8 -6 -3 -3 1 9 8 11 12 10 8 9 8 8 10 10 10 10 10 10 9 10 2 4 10 8 6
-8 -6 -4 -5 -4 -5 -3 -2 -1 3 8 9 11 10 9 8 9 9 9 10 10 10 11 10 11 10 9 5 5 9 6 7
-2 -0 -1 -2 -5 -3 2 2 3 5 9 9 10 9 7 9 10 10 10 11 10 10 11 10 10 10 8 6 3 8 6 6
1 -1 2 1 -1 -1 2 5 6 9 10 10 10 9 7 10 10 11 11 10 10 10 10 11 10 10 9 7 4 8 6 6
3 2 2 4 2 1 3 7 9 10 10 10 9 5 9 11 10 11 11 10 9 10 10 10 10 10 8 8 -1 7 6 6
3 3 3 4 4 2 5 8 9 11 11 10 9 4 10 10 10 11 10 10 10 10 10 10 10 10 7 8 -2 6 7 6
0 3 3 2 7 6 6 8 10 11 11 10 9 5 9 10 11 10 10 10 10 10 10 10 10 8 7 9 -1 -3 4 6
2 4 4 3 4 9 9 9 11 11 11 10 8 6 9 10 9 10 11 10 10 10 10 9 10 10 8 9 3 -5 -3 2
3 4 4 5 5 5 10 10 11 11 11 10 9 8 9 10 10 10 10 11 10 9 9 9 9 9 9 9 6 -4 -5 -2
4 5 6 6 6 6 8 9 11 11 11 10 9 9 10 10 10 10 10 10 10 11 10 10 8 7 6 6 10 5 -5 -5
5 6 7 8 8 7 9 10 9 11 11 10 9 9 10 10 9 10 10 10 10 10 10 10 9 9 6 5 9 10 4 -4
4 5 5 6 9 9 9 9 9 9 11 10 8 8 9 9 8 9 9 9 9 9 10 10 10 10 10 10 10 10 10 2
4 4 0 3 5 8 10 10 9 10 10 9 8 9 9 9 8 9 9 9 9 10 10 10 10 10 10 10 10 9 10 7
4 2 3 3 3 6 9 9 9 9 10 9 8 9 9 9 8 9 9 9 9 10 9 9 10 10 10 10 10 9 10 9
4 4 3 4 4 6 8 9 9 9 9 9 8 9 9 8 8 9 8 8 9 9 9 9 9 9 10 10 9 10 9 9
4 5 2 3 5 6 8 9 9 9 10 9 8 8 8 8 8 8 8 8 8 8 8 9 9 9 9 9 9 9 9 9
6 6 3 3 5 5 7 8 9 9 10 9 8 8 8 8 8 8 8 8 8 9 8 8 8 8 9 9 8 9 9 9
5 4 4 4 4 5 6 8 8 9 9 9 8 8 8 8 8 8 8 8 8 8 8 8 8 8 8 8 8 9 8 8
4 4 4 4 4 5 6 7 8 8 9 9 9 8 8 8 8 8 8 8 8 8 8 8 8 8 8 8 8 8 8 8

GFSFLT1_850_dewp_120.txt.gz
Dewpoint
-9 -7 -3 -1 -1 -4 -7 -9 -7 3 8 12 13 10 9 10 10 11 11 10 10 11 11 11 10 10 10 8 8 8 9 9
-7 -1 2 4 4 2 -4 -2 -2 6 9 12 12 10 10 10 11 11 8 8 10 10 11 11 11 11 10 9 7 8 8 8
-1 1 3 4 7 3 3 5 7 10 10 12 11 11 10 10 11 9 7 8 8 10 11 10 11 11 10 10 8 8 8 9
2 3 4 5 6 9 9 9 10 9 12 11 12 10 10 11 10 6 9 10 10 10 10 10 11 10 10 10 9 7 8 9
3 3 4 5 8 9 10 10 6 8 11 11 12 11 11 10 6 5 10 11 11 11 10 10 10 10 10 10 9 7 7 8
2 2 3 4 7 6 10 11 4 11 12 12 12 12 12 10 4 8 11 10 10 10 10 9 10 10 10 10 9 8 8 8
1 1 3 4 6 8 6 8 10 11 12 13 12 12 12 9 10 11 10 11 9 9 10 10 10 10 10 10 9 8 8 8
2 3 3 5 7 7 8 8 11 12 12 12 12 12 11 9 11 11 10 10 9 10 10 10 10 10 10 10 9 8 7 8
2 3 5 6 8 9 8 10 10 11 10 12 12 10 9 10 10 11 10 10 9 9 10 10 10 10 10 10 10 8 5 6
2 2 4 5 7 9 10 9 10 10 11 11 12 11 10 11 10 10 10 10 10 10 10 10 10 9 10 10 8 8 5 3
1 1 3 3 5 7 9 10 10 10 10 11 11 11 10 10 10 9 10 10 10 11 10 10 10 9 9 9 8 9 7 1
1 2 2 2 4 6 8 9 9 9 10 10 11 11 10 9 10 10 9 9 11 11 10 10 10 10 9 8 9 9 9 3
0 2 3 3 5 5 6 9 9 9 9 10 10 11 10 9 9 9 9 9 9 9 9 10 10 9 10 9 8 8 8 8
-1 1 3 4 5 5 5 7 9 9 9 9 10 10 10 9 9 9 9 9 8 8 8 9 9 9 9 10 9 8 6 6
-1 2 4 5 4 3 4 6 8 9 9 9 10 10 9 9 9 9 9 8 9 9 9 10 9 9 9 10 10 9 9 7
1 4 5 5 5 3 3 4 7 8 9 9 9 9 9 9 9 9 9 8 8 9 9 8 9 9 9 9 9 9 9 8
4 5 5 5 4 4 3 3 5 7 9 9 9 8 9 9 9 8 8 8 8 8 8 9 8 9 9 9 9 9 8 8
4 4 4 4 4 4 4 2 5 7 8 9 9 9 9 9 8 8 8 8 8 9 8 8 8 8 8 9 9 9 8 8
3 3 3 3 3 3 3 3 4 6 8 9 9 9 8 8 8 8 8 8 8 8 8 8 8 8 8 8 8 8 8 8

GFSFLT1_850_dewp_123.txt.gz
Dewpoint
-10 -8 -7 -3 -2 -2 0 0 0 3 7 12 13 13 12 14 13 13 13 12 12 12 12 12 12 11 11 10 10 9 9 8
-11 -8 -2 1 2 5 4 4 3 3 6 10 12 14 13 13 14 13 13 13 12 12 12 12 12 11 11 10 10 8 8 9
-8 -3 1 3 4 5 7 7 7 8 7 10 12 13 13 13 13 12 11 12 12 11 11 10 10 11 10 10 10 9 8 9
-3 0 1 4 5 9 9 8 8 10 10 11 13 13 12 12 13 11 10 11 11 11 10 10 11 11 11 10 10 9 8 8
-1 -1 0 3 6 9 10 10 10 10 11 12 12 12 12 12 13 11 11 11 9 11 10 11 11 11 11 10 10 9 8 9
-1 -0 1 2 5 7 10 11 11 11 12 12 12 12 12 12 12 11 11 10 10 11 11 11 11 11 10 10 10 10 8 9
-0 0 1 2 5 8 8 10 11 12 12 11 12 11 12 12 12 12 11 10 11 11 11 10 10 10 10 10 10 10 6 9
0 1 2 3 5 7 8 8 10 11 11 11 12 12 12 12 12 11 11 10 10 10 10 9 10 10 10 10 10 10 6 9
0 0 1 3 4 6 8 8 8 11 10 11 12 12 12 12 12 12 12 11 9 9 8 10 8 9 10 10 10 10 8 8
-1 -0 1 2 1 3 7 9 9 10 10 10 12 12 12 12 12 11 11 12 10 9 9 9 10 9 10 9 9 9 9 8
-4 -1 -0 0 1 4 6 8 9 10 10 10 10 11 12 12 11 11 11 11 11 10 10 10 10 10 9 9 9 9 9 8
-7 -2 -0 1 2 4 6 7 8 10 10 10 10 11 11 11 11 11 11 11 10 10 10 10 10 10 9 9 9 9 9 9
-12 -3 -1 1 3 4 5 6 7 8 10 10 9 10 11 11 11 10 11 11 10 10 10 10 10 10 10 9 9 9 9 9
-15 -7 -3 0 3 4 5 6 6 7 9 9 9 10 11 11 10 10 9 9 9 10 10 10 10 10 10 10 9 9 9 6
-12 -10 -3 0 4 5 5 5 6 4 8 9 9 10 11 11 10 9 9 9 9 9 9 10 10 10 10 10 10 9 8 7
-7 -4 1 4 5 4 5 4 5 5 6 9 9 9 10 10 9 9 9 9 9 9 9 9 9 9 10 10 9 9 9 9
-4 1 2 4 4 4 4 4 3 4 4 8 9 9 10 10 9 9 8 9 9 9 9 9 9 9 9 9 9 9 9 9
2 3 3 3 3 3 3 3 3 4 4 5 8 9 10 10 9 9 9 9 8 8 8 9 9 9 8 9 7 9 9 8
2 3 3 2 2 2 2 2 3 4 4 4 8 9 10 9 9 9 9 8 8 8 8 8 9 8 8 9 9 9 8 8